Simultaneous Nadir Overpasses (SNOs) Predictions

Prediction of SNOs between TERRA and METOP-C Satellite Orbit:

Table of predicted SNOs for the next 14.0 days since TLE Epoch: 2/26/2022
Index Date (TERRA) Time (TERRA) Lat,Lon (TERRA) SZA (TERRA ) Date (METOP-C) Time (METOP-C) Lat,Lon (METOP-C) SZA (METOP-C ) Distance(km) Time Diff (sec)
1 02/28/2022 18:42:07 81.21, -57.84 90.92 02/28/2022 18:41:46 81.21, -57.89 90.90 1.07 21
2 02/28/2022 19:31:34 -81.21, 109.72 89.11 02/28/2022 19:32:27 -81.22, 109.82 89.07 2.08 53
3 03/03/2022 14:16:18 81.20, 8.44 89.84 03/03/2022 14:16:09 81.20, 8.36 89.83 1.27 9
4 03/03/2022 15:05:44 -81.22, 176.39 90.13 03/03/2022 15:06:49 -81.22, 176.47 90.10 1.38 65
5 03/06/2022 09:01:04 -81.19, -93.01 91.26 03/06/2022 08:59:54 -81.19, -92.93 91.27 1.34 70
6 03/06/2022 09:50:29 81.21, 75.03 88.79 03/06/2022 09:50:32 81.21, 75.00 88.79 0.68 3
7 03/09/2022 04:35:15 -81.20, -26.45 92.31 03/09/2022 04:34:17 -81.20, -26.29 92.32 2.71 58
8 03/09/2022 05:24:41 81.20, 141.19 87.68 03/09/2022 05:24:56 81.20, 141.27 87.70 1.57 15
9 03/12/2022 00:09:25 -81.20, 40.05 93.39 03/12/2022 00:08:40 -81.19, 39.96 93.42 1.55 45



Historial Predications of SNOs between TERRA and METOP-C
